[[{"header":{"parameterUnit":"m.s-1","parameterCategory":1,"la1":30.2992,"la2":30.254,"lo1":-89.0895,"lo2":-89.0443,"dy":0.0025,"dx":0.0025,"nx":19,"ny":19,"refTime":"2026-03-31T21:00:00:Z","depth":0,"parameterNumber":2,"parameterNumberName":"U-component_of_WINDS"},"data":[0,0,0,-3.701,-3.7013,-3.7169,-3.717,-3.7364,-3.7365,0,0,0,0,0,0,0,0,0,0,0,-3.696,-3.6962,-3.701,-3.7014,-3.7169,-3.717,-3.7363,-3.7365,0,0,0,0,0,0,0,0,0,0,0,-3.696,-3.6961,-3.6963,-3.7014,-3.7169,-3.717,-3.7363,-3.7247,0,0,0,0,0,0,0,0,0,0,-3.7097,-3.7048,-3.6961,-3.6963,-3.7015,-3.7169,-3.717,-3.7242,-3.7254,-3.729,0,-3.7322,0,-3.7346,-3.7378,-3.7378,0,0,0,-3.7016,-3.7037,-3.7082,-3.6963,-3.7017,-3.7169,-3.71,-3.7249,-3.7263,-3.7307,-3.7324,-3.7332,-3.735,-3.7379,-3.738,-3.7579,-3.7579,0,0,-3.7008,-3.6987,-3.7072,-3.7091,-3.7067,-3.7095,-3.7105,-3.7258,-3.7275,-3.7325,-3.7336,-3.7353,-3.738,-3.7382,-3.7578,-3.7579,0,0,0,-3.6981,-3.698,-3.7022,-3.7083,-3.7112,-3.7099,-3.7111,-3.7268,-3.7283,-3.7338,-3.7355,-3.7381,-3.7384,-3.7577,-3.7578,-3.7596,0,0,0,-3.6976,-3.6965,-3.7018,-3.7007,-3.7109,-3.7192,-3.7117,-3.7273,-3.7291,-3.7354,-3.7381,-3.7385,-3.7576,-3.7578,-3.7594,-3.7607,0,0,0,-3.6951,-3.6962,-3.6984,-3.7005,-3.7072,-3.719,-3.7214,-3.7277,-3.7301,-3.7379,-3.7386,-3.7576,-3.7577,-3.7592,-3.7604,-3.7652,0,0,0,-3.6919,-3.6998,-3.6983,-3.7078,-3.707,-3.7201,-3.7213,-3.7312,-3.7381,-3.7382,-3.7576,-3.7578,-3.7591,-3.7602,-3.765,-3.7687,-3.7701,0,0,-3.7007,-3.7008,-3.7065,-3.7057,-3.7184,-3.7179,-3.7309,-3.7392,-3.7419,-3.7524,-3.7529,-3.7595,-3.7604,-3.7651,-3.7792,-3.7803,0,0,0,-3.7086,-3.7126,-3.7165,-3.723,-3.7295,-3.7353,-3.7418,-3.7449,-3.7539,-3.7469,-3.7627,-3.7633,-3.7662,-3.768,-3.769,-3.7715,-3.7587,-3.7586,-3.7586,-3.7178,-3.7208,-3.7305,-3.7354,-3.7417,-3.7485,-3.7538,-3.7591,-3.7604,-3.7641,-3.7671,-3.7753,-3.7774,-3.7781,-3.7807,-3.7696,-3.7696,-3.7696,-3.7696,-3.7307,-3.7368,-3.7384,-3.7483,-3.7515,-3.7599,-3.7668,-3.7674,-3.7757,-3.7733,-3.776,-3.7728,-3.7792,-3.7816,-3.7698,-3.7697,-3.7697,-3.7697,-3.7697,-3.7368,-3.7402,-3.744,-3.7536,-3.7607,-3.7656,-3.7734,-3.7761,-3.7788,-3.7815,-3.7848,-3.7848,-3.7849,-3.7829,-3.783,-3.783,-3.783,-3.783,-3.7831,-3.7415,-3.7457,-3.7519,-3.7596,-3.7641,-3.7704,-3.7774,-3.7819,-3.7876,-3.7889,-3.789,-3.7897,-3.7794,-3.7765,-3.7835,-3.7834,-3.7834,-3.7833,-3.7833,-3.753,-3.7509,-3.7605,-3.765,-3.7743,-3.7811,-3.7846,-3.7936,-3.7977,-3.8015,-3.8018,-3.7938,-3.7941,-3.7933,-3.791,-3.8013,-3.8013,-3.8013,-3.8013,-3.7579,-3.7584,-3.7688,-3.7758,-3.7831,-3.7872,-3.7979,-3.8035,-3.8089,-3.8116,-3.8106,-3.8079,-3.807,-3.8078,-3.8068,-3.8046,-3.8181,-3.8181,-3.8181,-3.7651,-3.7664,-3.7749,-3.7802,-3.7877,-3.794,-3.8042,-3.8121,-3.8179,-3.8189,-3.8138,-3.8131,-3.8087,-3.8071,-3.8076,-3.8059,-3.802,0,0]},{"header":{"parameterUnit":"m.s-1","parameterCategory":1,"la1":30.2992,"la2":30.254,"lo1":-89.0895,"lo2":-89.0443,"dy":0.0025,"dx":0.0025,"nx":19,"ny":19,"refTime":"2026-03-31T21:00:00:Z","depth":0,"parameterNumber":3,"parameterNumberName":"V-component_of_WINDS"},"data":[0,0,0,3.8601,3.8604,3.8727,3.8727,3.8885,3.8886,0,0,0,0,0,0,0,0,0,0,0,3.8566,3.8567,3.8601,3.8604,3.8727,3.8727,3.8885,3.8886,0,0,0,0,0,0,0,0,0,0,0,3.8565,3.8567,3.8568,3.8604,3.8727,3.8727,3.8884,3.8791,0,0,0,0,0,0,0,0,0,0,3.8671,3.864,3.8566,3.8568,3.8605,3.8727,3.8728,3.8787,3.8797,3.883,0,3.886,0,3.8876,3.8897,3.8897,0,0,0,3.8603,3.8631,3.8664,3.8568,3.8606,3.8727,3.8671,3.8792,3.8804,3.8843,3.8862,3.8868,3.8878,3.8898,3.8899,3.9096,3.9097,0,0,3.8596,3.8588,3.8656,3.8672,3.8654,3.8667,3.8675,3.8799,3.8819,3.8863,3.8872,3.8881,3.8899,3.89,3.9095,3.9096,0,0,0,3.8577,3.8583,3.8613,3.8665,3.8687,3.8671,3.868,3.8813,3.8824,3.8873,3.8883,3.89,3.8902,3.9094,3.9095,3.9138,0,0,0,3.8573,3.8572,3.861,3.8606,3.8685,3.8752,3.8691,3.8815,3.8829,3.8882,3.89,3.8903,3.9093,3.9095,3.9135,3.9159,0,0,0,3.8557,3.8571,3.8589,3.8605,3.8658,3.875,3.8768,3.8818,3.8835,3.8898,3.8904,3.9092,3.9094,3.9131,3.9154,3.921,0,0,0,3.8538,3.8623,3.8589,3.8689,3.8657,3.8776,3.8767,3.8855,3.8914,3.8901,3.9093,3.9095,3.913,3.9151,3.9207,3.9256,3.9276,0,0,3.8641,3.8635,3.8694,3.8668,3.8791,3.8758,3.8887,3.8947,3.8958,3.9049,3.9054,3.9136,3.9154,3.9209,3.9389,3.9405,0,0,0,3.8725,3.8767,3.8801,3.8858,3.8907,3.8952,3.8993,3.9015,3.9093,3.9004,3.9171,3.9182,3.9215,3.9239,3.9252,3.9282,3.9106,3.9106,3.9105,3.8859,3.8872,3.8972,3.9,3.9055,3.9098,3.9143,3.9181,3.9175,3.9215,3.9242,3.935,3.9378,3.9388,3.9418,3.9269,3.9269,3.9269,3.9269,3.9013,3.9076,3.907,3.9164,3.9177,3.9256,3.9301,3.9295,3.937,3.933,3.9359,3.9315,3.9405,3.9432,3.9272,3.9272,3.9271,3.9271,3.9271,3.9103,3.9136,3.9163,3.9248,3.9312,3.9336,3.941,3.9418,3.9426,3.9455,3.9486,3.9485,3.9486,3.9469,3.947,3.947,3.947,3.9471,3.9471,3.9187,3.9216,3.9278,3.9339,3.9378,3.9429,3.9475,3.9512,3.9556,3.9556,3.9557,3.9548,3.9411,3.9377,3.9477,3.9476,3.9475,3.9475,3.9474,3.9339,3.9307,3.9402,3.9441,3.9514,3.9577,3.9588,3.9664,3.9696,3.9733,3.9719,3.9616,3.9609,3.9599,3.9571,3.9715,3.9715,3.9715,3.9715,3.9416,3.9414,3.9515,3.9577,3.9638,3.9658,3.9765,3.9802,3.9833,3.9854,3.9835,3.9798,3.9787,3.9787,3.9773,3.9746,3.9932,3.9933,3.9933,3.9511,3.9516,3.9606,3.9639,3.9698,3.9748,3.9849,3.992,3.9949,3.9942,3.9871,3.9862,3.9803,3.9782,3.9773,3.975,3.9702,0,0]}]]